Location: Newark
(50.5333°N, 4.4333°E)
Time: 07:40:24
(UTC+00:00)

N. Korean satellite - Visible Passes

Search period start: 16 October 2019 00:00
Search period end: 26 October 2019 00:00
Orbit: 455 x 508 km, 97.2° (Epoch: 15 October)

Date Brightness Start Highest point End Pass type
(mag) Time Alt. Az. Time Alt. Az. Time Alt. Az.
16 Oct 9.5 04:56:04 10° NE 04:58:53 22° E 05:01:44 10° SE visible
17 Oct 10.3 04:31:55 10° ENE 04:33:23 12° E 04:34:51 10° ESE visible
18 Oct 10.1 17:53:38 10° WSW 17:55:27 14° W 17:57:16 10° WNW visible
19 Oct 8.6 05:13:12 10° NNE 05:16:31 33° E 05:19:50 10° SSE visible
19 Oct 9.2 17:27:02 10° SSW 17:29:56 25° W 17:32:51 10° NW visible
20 Oct 9.8 04:48:27 10° NE 04:51:03 18° E 04:53:39 10° SE visible
21 Oct 10.6 04:25:08 10° E 04:25:30 10° E 04:25:51 10° E visible
22 Oct 7.6 05:30:30 10° NNE 05:34:03 53° E 05:37:39 10° S visible
22 Oct 9.9 17:45:16 10° SW 17:47:32 16° W 17:49:50 10° NW visible
23 Oct 9.0 05:05:28 10° NE 05:08:39 28° E 05:11:51 10° SSE visible
23 Oct 8.8 17:18:57 10° SSW 17:22:02 30° W 17:25:10 10° NNW visible
24 Oct 10.0 04:40:52 10° NE 04:43:09 16° E 04:45:27 10° SE visible
25 Oct 10.4 18:04:16 10° WSW 18:05:10 11° W 18:06:03 10° WNW visible
